Location: Wien
(48.2082°N, 16.3738°E)
Time: 11:58:46
(UTC+02:00)

Tiros 1 despin weight - Pass Details

Date: 18 September 2024
Orbit: 573 x 615 km, 48.2° (Epoch: 06 October)

Event Time Altitude Azimuth Distance (km) Brightness Sun altitude
Rises 02:52:28 0° 220° (SW) 2,850 - -33.3°
Reaches altitude 10° 02:54:56 10° 210° (SSW) 1,956 - -33.0°
Maximum altitude 02:58:55 31° 148° (SSE) 1,072 - -32.6°
Exits shadow 03:01:51 16° 94° (E) 1,626 ? -32.3°
Drops below altitude 10° 03:02:56 10° 86° (E) 1,979 ? -32.2°
Sets 03:05:26 0° 76° (ENE) 2,890 ? -31.9°
